User: anonymous   Login
Location: Unspecified
(0.0000°N, 0.0000°E)
Time: 03:31:39
(UTC+00:00)
Language:

Kosmos-2180 - Orbit

View from above orbital plane
View from above orbital plane
View from above satellite
View from above satellite

Ground track
Ground track

The orbit data is extracted from the following two-line orbital elements,

1 21875U 92008A   17112.80641300 +.00000040 +00000-0 +27206-4 0  9991
2 21875 082.9287 177.9290 0036106 272.7987 226.0199 13.73718673261907
Epoch (UTC): 22 April 2017 19:21:14
Eccentricity: 0.0036106
inclination: 82.9287°
perigee height: 959 km
apogee height: 1013 km
right ascension of ascending node: 177.9290°
argument of perigee: 272.7987°
revolutions per day: 13.73718673
mean anomaly at epoch: 226.0199°
orbit number at epoch: 26190

The dashed part of the orbit path shows where the satellite is in the earth's shadow,  

DLR